Hourly Data Report for January 30, 2017

PORT ALBERNI (AUT)
BRITISH COLUMBIA

49°18'59.700" N
124°55'36.600" W
76.20 m
1036B06
71475
WQC

Download Data

Hourly Data (January 2017)
Hourly Data Report for January 30, 2017
TIME
LST
Temp Definition
°C
Dew Point Definition
°C
Rel Hum Definition
%
Precip. Amount Definition
mm

Wind Dir Definition
10's deg

Wind Spd Definition
km/h
Visibility Definition
km
Stn Press Definition
kPa
Hmdx Definition


Wind Chill Definition


Weather Definition


00:00 1.9 1.6 98 0.0 26 1   102.19     LegendNANA
01:00 2.3 2.1 98 0.0   0   102.19     LegendNANA
02:00 2.9 2.6 98 0.0 33 5   102.18     LegendNANA
03:00 2.9 2.5 98 0.0 29 2   102.17     LegendNANA
04:00 2.9 2.5 98 0.0 28 1   102.15     LegendNANA
05:00 2.7 2.4 98 0.2 15 1   102.15     LegendNANA
06:00 2.1 1.7 98 0.0   0   102.15     LegendNANA
07:00 1.8 1.5 98 0.1 32 7   102.10     LegendNANA
08:00 1.9 1.7 98 0.0 28 5   102.10     LegendNANA
09:00 1.6 1.3 98 0.0 33 8   102.08     LegendNANA
10:00 2.2 1.4 94 0.0   0   102.09     LegendNANA
11:00 2.9 1.6 91 0.0 33 1   102.08     LegendNANA
12:00 3.7 1.8 88 0.0 34 1   102.11     LegendNANA
13:00 4.3 1.8 84 0.0 30 3   102.03     LegendNANA
14:00 4.7 0.8 76 0.0 9 1   101.94     LegendNANA
15:00 4.9 1.3 77 0.0 11 5   101.87     LegendNANA
16:00 4.4 2.3 86 0.0 29 2   101.82     LegendNANA
17:00 3.5 2.4 93 0.0 0 1   101.77     LegendNANA
18:00 2.1 1.4 95 0.0 27 1   101.73     LegendNANA
19:00 0.8 0.2 95 0.0 29 1   101.74     LegendNANA
20:00 -0.1 -0.6 97 0.0 30 4   101.73   -1 LegendNANA
21:00 -1.1 -1.5 97 0.0   0   101.73     LegendNANA
22:00 -0.9 -1.2 98 0.0 31 5   101.74   -3 LegendNANA
23:00 -0.6 -0.8 99 0.0 27 4   101.73   -2 LegendNANA

Notes on Data Quality.

Legend

  • E = Estimated
  • M = Missing
  • NA = Not Available*
  • [empty] = Indicates an unobserved value
Date modified: